Hourly Data Report for October 26, 2016

All times are specified in Local Standard Time (LST). Add 1 hour to adjust for Daylight Saving Time where and when it is observed.

KAMLOOPS A
BRITISH COLUMBIA

50°42'09.000" N
120°26'55.000" W
345.30 m
1163781
71887
YKA

Download Data

Hourly Data (October 2016)
Hourly Data Report for October 26, 2016
Temp Definition
°C
Dew Point Temp Definition
°C
Rel Hum Definition
%
Wind Dir Definition
10's deg

Wind Spd Definition
km/h
Visibility Definition
km
Stn Press Definition
kPa
Hmdx Definition


Wind Chill Definition


Weather Definition


TIME
00:00 Legend Double Dagger 8.5 4.0 73 8 22 64.4 97.65     LegendNANA
01:00 Legend Double Dagger 7.0 3.4 78 8 17 64.4 97.70     Clear
02:00 Legend Double Dagger 5.4 2.6 82 8 16 64.4 97.70     LegendNANA
03:00 Legend Double Dagger 5.1 2.5 83 10 16 64.4 97.68     LegendNANA
04:00 Legend Double Dagger 5.0 2.9 86 10 10 64.4 97.67     Mainly Clear
05:00 Legend Double Dagger 4.1 2.1 87 7 3 64.4 97.61     LegendNANA
06:00 Legend Double Dagger 4.4 2.3 86 8 7 48.3 97.56     LegendNANA
07:00 Legend Double Dagger 4.5 2.5 87 7 7 48.3 97.54     Cloudy
08:00 Legend Double Dagger 6.3 3.5 82 13 10 48.3 97.53     LegendNANA
09:00 Legend Double Dagger 6.5 3.7 82 10 15 64.4 97.53     LegendNANA
10:00 Legend Double Dagger 6.7 3.9 82 11 10 40.2 97.46     Cloudy
11:00 Legend Double Dagger 6.4 4.6 88 10 14 16.1 97.40     Rain
12:00 Legend Double Dagger 7.0 5.3 89 13 15 19.3 97.30     LegendNANA
13:00 Legend Double Dagger 7.2 5.7 90 11 13 24.1 97.22     Rain
14:00 Legend Double Dagger 7.3 5.6 89 13 13 32.2 97.16     Rain
15:00 Legend Double Dagger 7.8 6.0 88 13 16 64.4 97.11     LegendNANA
16:00 Legend Double Dagger 8.0 6.2 88 11 13 64.4 97.06     Cloudy
17:00 Legend Double Dagger 8.1 5.9 86 11 13 64.4 97.01     LegendNANA
18:00 Legend Double Dagger 8.4 6.0 85 13 11 64.4 96.97     LegendNANA
19:00 Legend Double Dagger 8.4 6.2 86 11 19 64.4 96.92     Mostly Cloudy
20:00 Legend Double Dagger 8.1 5.9 86 11 22 64.4 96.88     LegendNANA
21:00 Legend Double Dagger 8.2 6.2 87 10 19 64.4 96.88     LegendNANA
22:00 Legend Double Dagger 8.8 5.9 82 10 22 64.4 96.87     Cloudy
23:00 Legend Double Dagger 9.6 6.3 80 10 23 64.4 96.82     LegendNANA

Notes on Data Quality.

Legend

  • E = Estimated
  • M = Missing
  • NA = Not Available
  • ‡ = Partner data that is not subject to review by the National Climate Archives
Date modified: